Weather in Berezovets

Russia / Oryol Oblast     52°52′43″N   36°47′29″E
temp.,
°C
wind,
m/s
gust,
m/s
humid.,
%
clouds,
%
prec.,
mm/h
press.,
hPa
HPBL,
m
9 march, tue
tue900:00−13nnw239039 0.0 101020
03:00−13nnw339339 0.0 101237
06:00−12nnw2396100 0.1 101485
09:00−13nnw379694 0.2 1016233
12:00−10nnw468999 0.0 1017597
15:00−9nnw468599 0.1 1018757
18:00−12nw339094 0.0 102028
21:00−15nw349048 0.0 102263
10 march, wed
wed1000:00−17nw34938 0.0 102340
03:00−19nw23964 0.0 102520
06:00−19wnw229910 0.0 102620
09:00−16wnw129651 0.1 1027113
12:00−12nnw1189100 0.1 1027304
15:00−10e1193100 0.5 1026233
18:00−12ene4695100 0.5 1026273
21:00−15ene5895100 1.0 1028301
11 march, thu
thu1100:00−20ene479399 0.1 1030159
03:00−24e349463 0.1 103244
06:00−25e33940 0.0 103232
09:00−22e36900 0.0 1033151
12:00−17ese34800 0.0 1034278
15:00−15ese34810 0.0 1033292
18:00−18ese23900 0.0 103220
21:00−21se33900 0.0 103323
12 march, fri
fri1200:00−21se34900 0.0 103337
03:00−21sse46870 0.0 103381
06:00−21sse48830 0.0 1032106
09:00−16sse611780 0.0 1031250
12:00−11s7117734 0.0 1030392
15:00−9s7127867 0.0 1028553
18:00−10sse61477100 0.0 1026504
21:00−10sse81770100 0.0 1026528
13 march, sat
sat1300:00−9s81769100 0.0 1024601
03:00−8s91784100 0.2 1022757
06:00−8s91792100 0.4 1021705
09:00−7s91691100 1.9 1020731
12:00−5ssw91493100 0.8 1020681
15:00−2ssw71295100 1.8 1019680
18:00−1ssw51097100 0.8 1019530
21:00−1ssw51097100 1.3 1019381